Temp
85 86 86 88 88 89 88 87 85 85 84 84 86 85 85 84 85 86 88 75 73 74 75 76 77 78 78 77 77 77 76 75 75 73 73 73 73 73 73 72 71 71 72
85 86 84 86 88 89 90 86 86 85 84 85 84 83 84 85 85 84 88 80 74 73 74 76 77 78 78 78 77 77 76 75 74 74 73 73 73 73 73 72 72 72 72
84 83 85 85 87 87 85 85 84 83 84 83 82 80 82 83 85 83 84 83 79 74 74 75 76 77 78 78 78 77 76 75 74 74 73 73 73 73 74 73 73 73 72
82 81 84 84 86 85 85 84 83 82 83 80 77 78 78 81 84 82 82 83 81 82 75 75 75 76 77 78 78 77 76 74 74 73 73 74 74 73 73 73 73 73 71
82 82 83 85 83 84 84 83 81 81 82 77 78 76 77 79 81 79 79 81 81 83 81 74 75 75 76 77 78 78 76 75 73 73 73 74 74 73 73 73 73 73 71
82 81 84 83 81 81 82 82 79 83 79 76 76 79 78 77 75 77 79 81 78 81 83 82 82 82 75 76 77 77 77 75 74 73 73 72 73 73 73 73 72 70 68
82 79 84 77 79 80 79 79 79 76 75 79 75 73 75 78 77 78 78 78 78 80 81 82 83 79 81 75 75 76 77 77 75 74 72 72 72 73 73 72 70 68 67
80 77 81 80 79 81 78 77 77 79 79 75 73 76 72 70 74 73 73 75 76 75 80 82 82 82 77 83 80 74 76 76 76 75 72 72 72 72 72 71 70 68 66
76 78 81 81 78 81 80 77 77 77 72 74 75 70 64 64 68 75 73 73 73 73 69 78 78 79 81 84 79 77 74 75 75 75 73 72 72 72 71 70 69 68 69
78 81 80 79 78 83 80 79 79 75 74 70 68 74 75 75 69 65 70 70 72 71 70 77 76 77 79 83 79 77 72 73 74 75 74 73 73 72 71 70 70 69 68
79 81 79 80 80 82 80 79 75 74 75 74 75 74 72 75 74 68 63 68 72 75 69 73 69 76 79 82 79 75 70 71 72 72 71 72 72 72 70 70 69 68 68
79 80 82 81 81 81 79 76 74 72 73 77 75 73 75 74 71 70 67 67 70 70 70 73 73 72 74 79 79 68 68 68 67 66 68 70 70 70 69 69 69 70 71
81 78 80 79 81 79 77 76 74 76 74 75 73 77 77 72 73 72 70 66 68 67 66 74 74 71 76 79 78 72 68 66 63 63 65 66 67 68 68 69 71 71 72
83 79 80 80 80 78 78 77 78 78 76 75 73 72 73 77 74 73 71 67 62 67 66 66 69 76 76 77 71 68 75 63 61 61 62 63 64 66 66 68 69 69 69
82 80 80 78 78 78 78 77 79 75 75 74 74 72 70 71 75 75 74 71 68 63 59 65 68 74 76 76 74 79 79 62 62 61 61 62 62 63 63 64 64 65 65
81 79 79 77 77 78 78 76 77 76 73 74 76 71 69 70 71 73 74 74 67 66 63 67 68 70 72 72 70 72 75 64 61 60 61 61 60 60 61 61 62 63 63
79 79 79 78 78 77 77 75 76 76 74 72 70 65 72 72 69 71 72 73 71 72 61 64 67 65 65 65 66 68 68 65 62 60 61 60 57 58 59 59 60 61 62
80 79 79 79 79 79 77 76 76 76 75 72 64 64 68 72 70 71 71 64 72 72 70 62 61 60 61 63 63 62 62 63 63 60 59 58 57 57 57 57 57 58 58
79 80 79 79 79 79 78 77 76 76 75 72 65 64 66 69 68 72 65 69 70 70 69 63 58 59 59 60 59 59 59 60 60 59 58 57 57 57 56 55 55 55 54
79 79 80 80 80 79 79 78 77 75 68 65 63 63 63 64 68 67 71 70 69 67 68 62 58 57 58 59 58 56 56 58 57 59 58 57 57 56 55 55 55 56 53
80 81 80 80 79 78 81 77 76 72 70 61 62 63 63 64 63 65 68 69 70 71 64 59 57 57 56 56 55 56 54 55 54 56 56 56 58 62 60 57 60 55 52
79 79 78 79 76 80 48 50 59 72 69 63 61 63 65 62 63 56 57 61 69 68 64 60 58 56 56 56 56 55 54 54 51 55 55 55 60 59 62 70 52 52 51
76 76 76 76 75 74 48 49 52 71 68 63 62 62 61 64 64 70 56 55 56 55 62 68 60 59 56 60 61 58 59 58 54 52 57 54 56 56 59 59 50 50 49
74 74 74 75 75 70 48 48 52 71 69 67 63 62 61 62 63 68 71 70 71 72 70 71 64 64 63 64 65 64 61 57 56 58 60 53 61 62 64 68 50 50 48
73 74 75 74 71 66 47 47 55 71 70 67 64 61 62 62 50 51 69 67 68 65 52 51 53 50 50 51 58 64 56 57 55 56 61 60 64 66 69 69 63 50 48
74 76 74 70 59 65 46 48 60 69 68 64 61 59 52 57 46 49 66 65 61 59 60 60 57 53 57 54 53 64 68 62 58 58 67 69 68 69 65 70 68 61 61
MSLP
1008.40 1008.98 1009.22 1009.37 1009.61 1009.97 1010.16 1010.52 1011.07 1011.12 1011.42 1011.45 1011.39 1011.65 1011.94 1011.90 1011.98 1011.98 1011.64 1012.55 1013.05 1013.16 1013.21 1013.19 1013.20 1013.35 1013.51 1013.65 1013.95 1014.10 1014.40 1014.73 1014.99 1015.51 1016.14 1016.74 1017.03 1017.21 1017.63 1017.94 1018.60 1019.14 1019.27
1007.61 1008.09 1008.71 1009.06 1009.11 1009.21 1009.29 1010.00 1010.23 1010.72 1010.97 1010.89 1011.12 1011.52 1011.57 1011.50 1011.46 1011.61 1011.29 1011.79 1012.42 1012.76 1012.85 1012.89 1012.87 1012.99 1013.13 1013.31 1013.65 1013.87 1014.19 1014.54 1014.85 1015.28 1015.80 1016.26 1016.66 1016.86 1017.32 1017.62 1018.35 1018.72 1018.96
1007.26 1007.74 1008.09 1008.49 1008.55 1008.76 1009.23 1009.70 1010.04 1010.63 1010.62 1010.72 1010.73 1011.23 1011.30 1011.28 1011.07 1011.27 1011.44 1011.38 1011.45 1011.97 1012.29 1012.56 1012.59 1012.68 1012.83 1013.09 1013.39 1013.73 1013.99 1014.34 1014.64 1015.04 1015.45 1015.95 1016.43 1016.79 1017.01 1017.37 1017.86 1018.32 1018.71
1006.93 1007.33 1007.56 1007.74 1007.88 1008.41 1008.95 1009.31 1009.72 1009.94 1010.04 1010.31 1010.77 1010.92 1011.18 1010.90 1010.53 1011.01 1011.28 1011.22 1011.08 1010.94 1011.65 1011.90 1012.21 1012.38 1012.58 1012.81 1013.15 1013.48 1013.78 1014.13 1014.44 1014.80 1015.22 1015.65 1016.14 1016.57 1017.00 1017.25 1017.68 1018.11 1018.60
1006.46 1006.80 1007.09 1007.15 1007.58 1008.09 1008.37 1008.80 1009.36 1009.53 1009.35 1010.25 1010.24 1010.60 1010.89 1010.80 1010.68 1011.10 1011.12 1011.09 1011.19 1010.92 1010.66 1011.22 1011.73 1012.05 1012.18 1012.42 1012.78 1013.13 1013.47 1013.80 1014.20 1014.70 1015.17 1015.54 1015.98 1016.36 1016.75 1017.17 1017.60 1017.99 1018.55
1005.94 1006.56 1006.48 1006.81 1007.55 1007.81 1007.94 1008.54 1008.84 1008.89 1009.38 1009.83 1010.12 1010.00 1010.09 1010.52 1010.78 1010.77 1010.48 1010.60 1011.02 1010.62 1010.52 1010.61 1011.09 1011.26 1011.87 1012.17 1012.50 1012.90 1013.17 1013.53 1013.99 1014.43 1014.95 1015.40 1015.90 1016.39 1016.81 1017.21 1017.64 1018.26 1019.09
1005.43 1005.94 1005.88 1006.82 1007.24 1007.21 1007.60 1008.14 1008.55 1008.95 1009.30 1009.47 1009.84 1009.98 1009.90 1009.78 1009.92 1009.77 1009.89 1010.20 1010.29 1010.31 1010.13 1010.52 1010.83 1010.68 1011.33 1012.02 1012.35 1012.62 1012.87 1013.21 1013.69 1014.22 1014.60 1015.22 1015.76 1016.39 1016.82 1017.27 1017.89 1018.61 1019.48
1004.96 1005.57 1005.49 1006.21 1006.62 1006.73 1007.39 1007.85 1008.23 1008.23 1008.70 1009.57 1009.48 1009.18 1008.89 1009.12 1009.37 1009.68 1010.00 1009.94 1010.19 1010.58 1010.11 1010.28 1010.51 1010.43 1010.72 1011.00 1011.70 1012.48 1012.76 1013.08 1013.54 1014.03 1014.53 1015.11 1015.76 1016.35 1016.90 1017.57 1018.25 1019.19 1019.68
1004.99 1005.26 1005.34 1005.73 1006.44 1006.57 1006.84 1007.40 1007.88 1008.17 1008.71 1009.15 1009.46 1009.59 1009.23 1008.67 1008.88 1009.05 1009.47 1009.86 1010.22 1010.61 1010.79 1010.49 1010.75 1011.00 1010.84 1010.61 1011.58 1012.14 1012.70 1013.14 1013.48 1013.91 1014.47 1015.08 1015.78 1016.40 1017.09 1017.74 1018.51 1019.24 1019.74
1004.70 1004.83 1005.28 1005.85 1006.25 1006.05 1006.54 1007.27 1007.73 1008.17 1008.45 1008.97 1009.80 1009.36 1009.11 1008.70 1008.25 1008.89 1009.42 1009.81 1010.14 1010.65 1010.86 1010.65 1010.86 1010.85 1011.04 1010.77 1011.35 1011.61 1012.46 1013.12 1013.41 1013.81 1014.30 1014.97 1015.68 1016.49 1017.09 1017.79 1018.54 1019.25 1019.82
1004.20 1004.73 1005.32 1005.66 1005.84 1006.01 1006.59 1006.98 1007.71 1008.06 1008.21 1008.31 1008.37 1008.50 1008.81 1008.59 1008.81 1008.81 1008.96 1009.39 1010.09 1010.44 1010.86 1010.94 1010.93 1010.85 1011.02 1010.82 1011.40 1011.88 1012.49 1013.03 1013.42 1013.80 1014.44 1015.05 1015.77 1016.52 1017.42 1018.14 1018.75 1019.52 1020.06
1004.13 1004.60 1004.89 1005.28 1005.67 1006.00 1006.53 1007.12 1007.64 1008.08 1008.23 1007.88 1008.11 1008.43 1008.10 1008.02 1008.41 1008.69 1008.84 1009.20 1009.37 1010.70 1010.98 1011.14 1011.00 1011.08 1010.98 1010.97 1011.49 1012.24 1012.62 1013.02 1013.42 1013.82 1014.39 1015.04 1015.82 1016.57 1017.66 1018.48 1019.05 1019.56 1019.86
1003.46 1004.43 1004.81 1005.19 1005.60 1006.09 1006.64 1006.99 1007.39 1007.41 1007.96 1007.92 1008.16 1007.80 1007.89 1008.24 1008.54 1008.69 1008.84 1009.27 1009.69 1010.72 1011.02 1010.75 1011.02 1011.18 1010.93 1011.05 1011.49 1012.13 1012.70 1013.06 1013.49 1013.95 1014.54 1015.24 1016.02 1016.92 1017.55 1018.39 1019.12 1019.57 1019.98
1003.03 1004.28 1004.66 1005.15 1005.49 1006.04 1006.37 1006.72 1006.82 1007.10 1007.52 1007.86 1007.98 1008.26 1008.40 1007.95 1008.41 1008.57 1008.49 1008.98 1009.67 1010.17 1010.67 1010.73 1011.02 1010.96 1011.22 1011.25 1012.00 1012.28 1012.46 1013.19 1013.54 1014.06 1014.75 1015.43 1016.38 1017.33 1017.60 1018.54 1019.13 1019.87 1020.28
1003.23 1004.11 1004.64 1005.12 1005.60 1005.91 1006.18 1006.53 1006.36 1007.08 1007.40 1007.67 1007.74 1008.29 1008.54 1008.37 1008.36 1008.50 1008.50 1008.89 1008.97 1009.68 1010.46 1010.70 1010.74 1011.03 1011.01 1011.40 1011.82 1011.74 1012.00 1013.34 1013.72 1014.37 1015.08 1015.66 1016.49 1017.47 1018.12 1018.82 1019.56 1020.10 1020.55
1003.38 1004.09 1004.62 1005.13 1005.45 1005.69 1006.02 1006.38 1006.36 1006.85 1007.19 1007.37 1007.62 1008.21 1008.49 1008.55 1008.52 1008.48 1008.36 1008.66 1009.28 1009.59 1010.08 1010.73 1010.99 1011.46 1011.73 1012.07 1012.32 1012.29 1012.33 1013.44 1013.98 1014.69 1015.37 1016.05 1017.03 1017.96 1018.43 1019.17 1019.85 1020.42 1020.92
1003.66 1004.06 1004.50 1004.90 1005.22 1005.59 1005.91 1006.28 1006.26 1006.41 1006.93 1007.44 1008.03 1008.45 1008.08 1008.20 1008.43 1008.45 1008.49 1008.60 1009.21 1009.38 1009.98 1011.11 1011.63 1012.33 1012.49 1012.69 1012.74 1012.86 1013.24 1013.89 1014.48 1015.04 1015.82 1016.71 1017.06 1018.34 1018.69 1019.62 1020.38 1020.89 1021.27
1003.73 1004.08 1004.50 1004.78 1005.05 1005.27 1005.68 1006.05 1006.17 1006.33 1006.66 1007.34 1008.11 1008.34 1008.18 1008.10 1008.16 1008.35 1008.76 1008.98 1008.98 1009.40 1009.84 1011.06 1012.22 1012.83 1013.03 1013.19 1013.42 1013.63 1014.01 1014.47 1015.04 1015.73 1016.50 1017.55 1018.27 1018.86 1019.19 1020.14 1020.84 1021.33 1021.66
1003.82 1004.12 1004.38 1004.56 1004.76 1005.01 1005.41 1005.76 1006.03 1006.20 1006.48 1007.24 1008.08 1008.36 1008.38 1008.38 1008.31 1008.27 1008.82 1008.84 1009.13 1009.59 1010.31 1011.38 1012.45 1013.17 1013.59 1013.82 1014.09 1014.58 1014.87 1015.37 1016.11 1016.55 1017.35 1018.01 1018.68 1019.27 1019.94 1020.91 1021.27 1021.67 1022.08
1003.78 1004.07 1004.26 1004.36 1004.63 1005.04 1005.40 1005.52 1005.72 1006.20 1006.99 1007.53 1008.02 1008.48 1008.61 1008.66 1008.38 1008.59 1008.48 1008.76 1009.12 1009.80 1010.63 1011.73 1012.70 1013.32 1013.88 1014.41 1014.73 1015.11 1015.92 1016.55 1017.15 1017.71 1018.45 1019.07 1019.71 1020.48 1021.01 1021.30 1021.49 1021.76 1022.28
1003.68 1003.89 1004.23 1004.50 1004.87 1005.24 1005.35 1005.49 1005.83 1006.58 1007.02 1007.59 1008.01 1008.32 1008.52 1008.57 1008.44 1008.68 1008.67 1008.85 1009.18 1009.57 1010.92 1011.93 1012.65 1013.56 1014.14 1014.61 1015.22 1015.96 1016.44 1017.27 1018.27 1018.66 1019.46 1020.13 1020.67 1020.88 1021.46 1021.68 1021.98 1022.27 1022.55
1003.79 1003.97 1004.29 1004.57 1005.13 1005.37 1006.81 1006.91 1006.82 1006.28 1007.01 1007.64 1007.87 1008.21 1008.41 1008.51 1008.59 1008.86 1008.98 1008.87 1009.04 1009.87 1010.78 1011.84 1012.73 1013.50 1014.27 1014.85 1015.60 1016.07 1016.74 1017.73 1019.34 1019.85 1020.01 1020.82 1021.09 1021.41 1021.50 1021.08 1022.08 1022.39 1022.70
1003.99 1004.21 1004.54 1004.89 1005.32 1005.92 1007.09 1007.21 1007.05 1006.54 1006.84 1007.56 1007.92 1008.20 1008.48 1008.58 1008.65 1008.77 1009.21 1009.49 1009.75 1010.33 1010.62 1011.23 1012.37 1013.26 1014.19 1014.81 1015.16 1016.05 1016.77 1017.30 1018.47 1020.09 1020.21 1021.10 1021.53 1021.60 1021.88 1022.25 1022.50 1022.59 1022.84
1004.31 1004.61 1004.86 1005.13 1005.55 1006.51 1007.22 1007.27 1007.06 1006.74 1006.92 1007.29 1007.91 1008.24 1008.57 1008.80 1009.00 1008.94 1009.08 1009.52 1010.11 1010.67 1011.23 1011.62 1012.66 1013.26 1014.10 1014.85 1015.33 1015.85 1016.75 1017.79 1019.26 1019.85 1019.89 1020.63 1021.04 1021.10 1021.24 1021.56 1022.74 1022.90 1023.16
1004.46 1004.68 1005.00 1005.32 1006.04 1006.90 1007.48 1007.49 1007.32 1006.74 1006.88 1007.41 1008.07 1008.46 1008.79 1009.07 1009.38 1009.48 1009.27 1009.84 1010.40 1011.34 1012.12 1012.21 1012.98 1013.70 1014.51 1015.23 1015.60 1016.24 1017.38 1017.84 1018.92 1019.61 1019.64 1019.84 1020.17 1020.31 1020.59 1020.97 1022.15 1023.06 1023.17
1004.45 1004.74 1005.23 1006.10 1006.90 1007.16 1007.69 1007.63 1007.32 1007.17 1007.18 1007.80 1008.39 1008.75 1009.12 1009.39 1009.79 1009.92 1009.86 1010.34 1011.08 1012.00 1012.73 1013.54 1014.42 1014.97 1015.02 1015.77 1016.13 1016.03 1016.37 1017.34 1018.19 1018.77 1018.57 1018.46 1019.10 1019.46 1019.89 1020.36 1021.07 1022.30 1022.55
Wind_Speed
11 12 11 11 11 11 11 10 10 8 9 9 9 9 9 7 7 6 4 12 8 9 10 10 10 10 9 10 9 8 8 13 15 18 17 18 18 18 17 15 15 15 16
11 12 12 12 12 11 11 9 10 9 9 9 9 11 10 9 8 8 6 7 12 10 10 11 9 10 10 10 11 10 9 10 15 16 17 17 17 17 20 19 19 20 18
13 13 12 11 12 11 11 9 8 9 9 8 10 9 9 11 10 8 8 7 8 13 12 11 11 10 10 11 11 9 9 9 10 15 15 13 16 16 14 17 20 19 18
16 13 11 12 12 10 10 10 10 9 9 6 8 8 8 11 9 7 8 7 6 5 12 13 12 11 10 11 12 11 10 10 10 11 14 15 14 13 14 15 17 17 17
16 13 11 11 11 10 10 9 8 9 9 7 9 6 8 8 7 8 10 9 10 8 5 14 11 9 10 12 13 11 10 11 11 12 13 14 14 14 13 12 12 14 14
15 13 10 10 9 10 9 10 10 9 5 6 6 8 8 7 8 10 10 8 9 12 9 8 7 9 10 11 11 10 11 11 13 13 14 14 13 13 12 12 13 23 26
14 14 10 9 11 10 11 11 8 10 6 3 5 8 9 11 11 9 8 8 9 9 10 5 7 2 9 9 8 8 10 11 12 13 13 12 14 14 13 17 24 25 23
13 12 11 11 12 9 10 9 11 7 5 5 5 5 8 3 7 6 7 7 8 5 5 8 9 8 5 8 10 9 10 10 12 13 12 14 16 17 18 22 25 25 22
10 13 12 10 10 9 10 11 9 9 6 6 6 5 3 4 4 5 7 6 6 4 3 6 8 8 7 6 7 9 7 6 12 14 14 14 18 18 22 24 25 24 22
13 12 12 11 11 9 8 9 8 7 6 5 3 8 9 6 3 3 5 6 6 4 4 4 6 7 8 5 4 7 12 8 10 12 15 19 20 21 24 25 25 24 23
12 12 12 14 11 8 9 8 7 6 6 7 8 5 7 7 5 4 4 6 5 3 2 1 3 5 6 4 4 8 9 9 8 10 17 22 21 24 25 26 25 23 21
9 12 13 11 10 8 8 7 8 8 8 6 4 7 6 6 5 5 2 4 5 3 1 3 4 1 3 2 7 10 9 8 7 10 19 24 25 26 27 24 21 22 21
10 11 11 10 9 8 8 7 8 7 8 7 8 5 5 4 5 5 4 5 5 3 1 4 3 2 4 4 6 5 10 8 8 14 17 21 24 25 23 21 21 20 20
10 13 9 9 8 9 7 7 7 6 7 7 8 6 6 6 4 5 4 5 5 4 3 6 5 5 3 4 7 6 9 8 11 16 18 21 22 19 20 16 16 16 17
9 11 10 9 9 8 7 7 5 7 7 7 6 7 7 4 5 7 4 5 5 6 2 3 4 4 3 3 4 6 8 12 16 17 20 22 21 17 14 13 13 13 14
10 10 10 8 8 7 8 7 6 8 8 6 6 5 6 5 4 5 5 5 2 4 5 4 2 5 4 4 3 6 7 13 18 20 22 23 18 14 16 16 15 13 13
9 9 8 9 9 8 8 7 6 7 9 7 4 5 7 7 5 6 4 5 6 5 5 4 5 5 4 4 6 7 8 9 12 25 25 21 17 16 17 16 14 13 12
9 9 9 9 8 8 8 8 9 8 9 8 6 3 3 4 6 5 4 5 7 6 7 10 3 3 5 5 7 8 7 8 11 19 23 21 19 18 17 16 13 11 10
10 9 8 8 8 7 7 8 7 8 6 7 7 5 4 4 6 6 5 7 6 6 10 8 4 3 3 5 10 9 10 10 7 22 21 20 20 19 15 10 11 10 11
10 9 8 8 7 6 6 6 5 4 3 6 5 4 4 5 8 7 8 7 9 9 10 9 6 5 3 6 9 11 10 8 9 9 14 14 15 15 9 10 11 12 11
9 9 8 6 5 4 1 3 5 6 7 6 5 4 4 6 7 7 5 8 12 9 9 9 7 6 6 5 9 8 11 10 8 6 9 7 7 8 6 8 9 10 11
9 8 7 6 5 2 6 5 7 4 9 7 5 5 4 5 6 9 7 11 13 13 13 9 6 9 8 9 10 11 13 11 6 3 8 6 6 6 6 8 9 10 10
8 7 6 5 4 6 4 3 7 2 6 6 5 4 3 2 6 8 7 8 11 5 10 15 13 10 11 14 15 14 13 10 7 4 9 7 3 5 4 5 6 8 8
8 7 5 5 4 6 3 3 6 5 6 7 6 5 5 5 6 11 12 13 13 11 12 10 9 12 11 13 15 13 11 10 9 7 5 4 6 6 6 6 4 6 6
8 6 5 5 5 6 2 2 6 4 6 8 6 6 6 5 9 8 11 13 12 8 11 13 12 11 16 12 12 13 10 12 10 6 5 6 8 8 7 7 7 6 7
8 6 7 8 6 7 2 1 1 3 5 5 5 5 8 7 8 9 10 12 12 10 12 13 11 12 12 13 8 9 14 12 9 7 7 9 9 8 6 6 6 8 8
Wind_Direction
208 203 211 215 206 212 206 214 223 215 219 228 231 236 247 249 266 264 270 160 210 238 243 242 239 233 227 212 211 205 184 186 184 176 181 191 186 172 179 185 175 205 174
206 206 208 211 218 218 215 211 217 219 224 233 220 234 238 246 245 256 252 170 180 216 237 237 231 233 231 210 201 201 186 189 195 193 183 196 193 192 187 192 187 201 174
215 210 209 213 218 220 220 220 216 220 241 226 246 233 233 242 253 236 242 257 182 193 214 236 241 239 237 215 202 203 194 187 197 190 199 201 197 195 195 189 195 187 174
221 201 213 215 218 216 208 212 214 226 231 225 240 239 228 252 241 256 253 260 279 216 196 213 228 231 229 211 200 203 200 188 192 192 192 188 185 183 179 199 188 182 172
208 210 215 214 210 214 210 218 217 224 239 235 247 237 240 258 257 244 242 239 249 263 250 170 199 218 218 201 201 204 203 188 186 182 186 182 183 186 184 183 176 167 157
200 200 209 207 195 210 206 212 220 223 225 246 254 240 240 247 242 236 240 232 236 240 229 230 194 192 186 188 200 206 209 201 189 187 193 188 177 174 167 162 145 132 133
194 195 198 180 199 197 204 201 209 220 229 209 250 241 243 233 243 246 233 222 228 237 218 183 228 179 171 181 193 206 222 222 189 192 196 189 168 156 146 140 136 134 133
185 184 189 182 191 185 192 188 206 206 203 200 248 278 267 218 229 229 229 229 204 218 249 196 211 218 193 175 185 191 210 217 178 179 179 161 157 153 145 142 136 136 143
163 183 183 177 172 199 182 190 194 204 208 214 248 242 260 265 177 198 210 220 197 201 268 248 202 205 215 146 162 167 184 195 187 171 178 162 155 147 147 146 144 145 146
174 176 169 169 181 199 164 186 194 210 218 207 219 244 251 299 287 200 177 203 183 166 221 225 212 200 187 198 184 86 156 169 185 176 169 158 153 152 147 150 148 142 145
163 162 166 179 178 189 181 178 176 214 202 235 217 194 218 226 209 240 188 166 165 141 185 282 256 202 195 223 167 141 153 167 174 168 152 149 147 148 149 149 147 154 169
159 166 173 173 170 185 179 184 181 192 228 232 224 214 216 218 212 247 216 182 151 137 153 158 110 208 181 222 155 146 153 162 164 149 154 149 149 147 151 156 158 163 164
159 163 164 165 173 182 180 185 192 196 201 214 219 213 238 202 221 225 220 158 151 160 151 149 117 208 198 177 160 163 157 156 142 142 142 151 150 151 154 157 163 164 157
161 156 165 170 168 178 179 185 185 203 199 212 213 222 244 241 214 217 210 163 151 151 176 139 180 161 177 170 98 159 153 146 135 139 142 144 143 151 144 163 159 154 141
133 162 165 166 173 178 179 172 207 202 203 215 205 217 226 257 206 226 179 192 189 153 152 190 148 147 136 128 108 163 166 136 140 136 140 142 136 143 148 143 135 136 134
147 155 159 168 176 176 181 189 180 196 201 202 202 202 214 215 225 219 193 161 178 154 144 156 126 118 138 92 139 162 124 132 133 138 140 136 132 129 124 122 120 122 122
147 158 165 174 174 177 184 192 206 183 208 196 170 233 228 211 198 198 198 192 169 176 140 113 85 74 69 105 92 97 122 125 132 135 132 124 122 127 117 111 115 121 134
153 152 162 169 174 180 184 198 210 211 210 184 175 192 254 211 206 188 178 231 172 173 157 129 103 79 63 80 90 86 93 112 131 130 130 130 129 120 110 111 120 134 131
147 153 164 172 181 188 185 209 220 216 205 172 162 163 239 247 196 180 194 185 182 147 130 136 106 86 70 99 89 82 85 92 107 117 115 111 110 108 98 118 126 126 119
151 160 169 168 165 183 191 213 202 179 134 107 160 193 207 225 230 186 187 200 155 144 135 126 116 103 95 101 100 109 95 93 99 97 92 99 108 109 128 133 130 139 132
158 160 161 158 149 175 150 282 188 163 151 145 172 202 220 230 252 174 195 152 150 141 135 138 119 123 125 121 118 118 104 103 68 91 105 102 132 138 127 145 134 127 138
160 157 157 151 145 126 58 340 310 165 156 156 171 197 215 224 185 196 239 161 164 154 150 142 132 143 132 120 129 132 128 129 113 74 106 98 126 128 134 173 93 140 146
161 152 146 133 135 116 55 302 280 214 142 158 159 157 161 196 192 181 100 89 108 103 153 158 148 151 142 149 144 141 142 137 113 139 135 112 150 117 135 134 146 141 152
157 152 138 126 128 82 38 219 249 144 158 141 136 147 139 154 164 176 168 151 148 157 144 155 145 146 144 152 149 137 122 107 109 141 138 117 170 148 177 137 134 161 142
155 147 126 132 102 89 92 228 271 137 123 123 127 135 139 140 140 163 162 144 151 106 50 81 113 114 126 133 137 129 133 137 135 161 210 126 181 165 185 171 160 159 177
156 141 128 91 86 113 136 264 290 88 96 98 99 120 136 141 149 154 150 141 132 125 116 105 100 93 111 115 143 160 154 145 144 149 185 171 171 163 184 191 178 181 197